Location: Arthez
(43.0833°N, 0.2500°W)
Time: 00:47:31
(UTC+00:00)

Cosmos 2278 - Pass Details

Date: 23 October 2021
Orbit: 838 x 854 km, 71.1° (Epoch: 06 December)

Event Time Altitude Azimuth Distance (km) Brightness Sun altitude
Rises 17:50:50 0° 215° (SW) 3,387 7.5 -8.9°
Reaches altitude 10° 17:53:19 10° 220° (SW) 2,458 6.9 -9.4°
Maximum altitude 17:58:52 57° 298° (WNW) 994 4.4 -10.4°
Drops below altitude 10° 18:04:29 10° 17° (NNE) 2,484 5.9 -11.4°
Sets 18:07:00 0° 22° (NNE) 3,426 6.6 -11.9°
